Location: Burgwalden
(48.2830°N, 10.7576°E)
Time: 01:11:47
(UTC+00:00)

ALOS - Pass Details

Date: 26 September 2023
Orbit: 676 x 679 km, 98.0° (Epoch: 04 December)

Event Time Altitude Azimuth Distance (km) Brightness Sun altitude
Rises 01:22:59 0° 24° (NNE) 3,054 6.5 -34.6°
Reaches altitude 10° 01:25:34 10° 37° (NE) 2,134 5.6 -34.3°
Enters shadow 01:28:40 25° 77° (ENE) 1,387 4.2 -34.0°
